SVA902 LTFJ-LTBJ

Flight info

Callsign SVA902
Flight time N/A
Altitude 29000
Route IVGUS1W/06R IVGUS UM19 OVZOK LTBJ/34L
Aircraft A320/M-SDE3FGHIRWY/LB1

Departure

Time N/A
Airport Istanbul Sabiha Gökçen International Airport (LTFJ)

Arrival

Time 2026-05-06 20:46
Airport Adnan Menderes International Airport (LTBJ)
Time Latitude Longitude Altitude Speed Heading
2026-05-06 20:17 40.21396 28.45610 25324 ft 452 kts 228°
2026-05-06 20:18 40.19116 28.42764 25631 ft 454 kts 228°
2026-05-06 20:18 40.16826 28.39909 25921 ft 456 kts 228°
2026-05-06 20:18 40.15309 28.38013 26109 ft 457 kts 228°
2026-05-06 20:18 40.13012 28.35138 26370 ft 459 kts 229°
2026-05-06 20:19 40.10701 28.32244 26658 ft 460 kts 229°
2026-05-06 20:19 40.08387 28.29348 26927 ft 462 kts 229°
2026-05-06 20:19 40.06062 28.26437 27200 ft 463 kts 229°
2026-05-06 20:19 40.03728 28.23517 27455 ft 465 kts 229°
2026-05-06 20:20 40.01392 28.20599 27713 ft 466 kts 229°
2026-05-06 20:20 39.99044 28.17668 27960 ft 468 kts 229°
2026-05-06 20:20 39.96691 28.14736 28208 ft 469 kts 229°
2026-05-06 20:20 39.94328 28.11797 28446 ft 470 kts 229°
2026-05-06 20:21 39.91958 28.08851 28703 ft 471 kts 229°
2026-05-06 20:21 39.89591 28.05911 28981 ft 470 kts 229°
2026-05-06 20:21 39.84880 28.00072 29081 ft 465 kts 229°
2026-05-06 20:22 39.80202 27.94286 29081 ft 464 kts 229°
2026-05-06 20:22 39.75529 27.88503 29082 ft 464 kts 229°
2026-05-06 20:23 39.70855 27.82728 29083 ft 464 kts 229°
2026-05-06 20:23 39.66165 27.76963 29081 ft 464 kts 229°
2026-05-06 20:24 39.61611 27.71368 29078 ft 464 kts 229°
2026-05-06 20:24 39.56921 27.65621 29069 ft 464 kts 229°
2026-05-06 20:25 39.52235 27.59878 29069 ft 464 kts 229°
2026-05-06 20:25 39.47545 27.54144 29067 ft 463 kts 229°
2026-05-06 20:26 39.42848 27.48424 29063 ft 463 kts 229°
2026-05-06 20:26 39.37873 27.43079 29042 ft 471 kts 216°
2026-05-06 20:27 39.31782 27.39730 28939 ft 483 kts 200°
2026-05-06 20:27 39.28549 27.38511 27911 ft 486 kts 200°
2026-05-06 20:27 39.25287 27.37296 27052 ft 485 kts 200°
2026-05-06 20:28 39.22061 27.36108 26278 ft 480 kts 200°
2026-05-06 20:28 39.18862 27.34929 25502 ft 477 kts 200°
2026-05-06 20:28 39.15685 27.33750 24729 ft 474 kts 200°
2026-05-06 20:28 39.12517 27.32567 23964 ft 472 kts 200°
2026-05-06 20:29 39.09368 27.31390 23155 ft 470 kts 200°
2026-05-06 20:29 39.06286 27.30237 22458 ft 465 kts 199°
2026-05-06 20:29 39.03195 27.29086 21768 ft 460 kts 199°
2026-05-06 20:29 39.00130 27.27951 21096 ft 456 kts 199°
2026-05-06 20:30 38.97092 27.26828 20447 ft 453 kts 199°
2026-05-06 20:30 38.91086 27.24603 19195 ft 446 kts 199°
2026-05-06 20:30 38.88092 27.23634 18635 ft 443 kts 192°
2026-05-06 20:31 38.85028 27.23281 18050 ft 442 kts 181°
2026-05-06 20:31 38.81998 27.23341 17868 ft 428 kts 181°
2026-05-06 20:31 38.79071 27.23383 17723 ft 414 kts 181°
2026-05-06 20:31 38.76234 27.23405 17585 ft 401 kts 181°
2026-05-06 20:32 38.73487 27.23423 17458 ft 389 kts 181°
2026-05-06 20:32 38.70826 27.23441 17321 ft 377 kts 181°
2026-05-06 20:32 38.68247 27.23378 17189 ft 364 kts 188°
2026-05-06 20:32 38.65817 27.22753 17038 ft 351 kts 199°
2026-05-06 20:33 38.63481 27.21912 16711 ft 347 kts 199°
2026-05-06 20:33 38.61163 27.21084 16370 ft 345 kts 199°
2026-05-06 20:33 38.58859 27.20265 16036 ft 343 kts 199°
2026-05-06 20:33 38.56559 27.19501 15700 ft 342 kts 193°
2026-05-06 20:34 38.54182 27.19292 15371 ft 343 kts 178°
2026-05-06 20:34 38.51828 27.19777 15019 ft 343 kts 167°
2026-05-06 20:34 38.49551 27.20470 14557 ft 339 kts 167°
2026-05-06 20:34 38.47270 27.21164 13963 ft 336 kts 168°
2026-05-06 20:35 38.45007 27.21848 13299 ft 333 kts 168°
2026-05-06 20:35 38.42767 27.22523 12665 ft 329 kts 167°
2026-05-06 20:35 38.40526 27.23197 12046 ft 325 kts 167°
2026-05-06 20:35 38.38370 27.23845 11451 ft 320 kts 167°
2026-05-06 20:36 38.36218 27.24492 10885 ft 316 kts 166°
2026-05-06 20:36 38.34109 27.25125 10535 ft 303 kts 166°
2026-05-06 20:36 38.32087 27.25729 10257 ft 289 kts 166°
2026-05-06 20:36 38.30176 27.26299 9808 ft 283 kts 166°
2026-05-06 20:37 38.28291 27.26861 9629 ft 278 kts 166°
2026-05-06 20:37 38.26405 27.27426 9353 ft 278 kts 166°
2026-05-06 20:37 38.24525 27.27990 8985 ft 277 kts 166°
2026-05-06 20:37 38.22650 27.28550 8578 ft 277 kts 166°
2026-05-06 20:38 38.20773 27.29111 8154 ft 277 kts 166°
2026-05-06 20:38 38.18897 27.29673 7772 ft 277 kts 166°
2026-05-06 20:38 38.17024 27.30233 7388 ft 277 kts 166°
2026-05-06 20:38 38.15157 27.30792 7049 ft 275 kts 166°
2026-05-06 20:39 38.13299 27.31346 6743 ft 273 kts 166°
2026-05-06 20:39 38.11454 27.31895 6462 ft 269 kts 166°
2026-05-06 20:39 38.09638 27.32108 6241 ft 259 kts 192°
2026-05-06 20:39 38.08051 27.31171 5846 ft 249 kts 225°
2026-05-06 20:40 38.07129 27.29389 5262 ft 241 kts 257°
2026-05-06 20:40 38.06745 27.27329 4795 ft 241 kts 261°
2026-05-06 20:40 38.06392 27.25259 4581 ft 235 kts 266°
2026-05-06 20:40 38.06643 27.23329 4500 ft 216 kts 302°
2026-05-06 20:41 38.07674 27.22016 4161 ft 215 kts 336°
2026-05-06 20:41 38.09128 27.21493 3734 ft 220 kts 347°
2026-05-06 20:41 38.10627 27.21056 3304 ft 220 kts 346°
2026-05-06 20:41 38.12077 27.20629 3052 ft 206 kts 346°
2026-05-06 20:42 38.13446 27.20222 2604 ft 199 kts 345°
2026-05-06 20:42 38.14788 27.19821 2295 ft 194 kts 345°
2026-05-06 20:42 38.16050 27.19444 2217 ft 179 kts 345°
2026-05-06 20:42 38.17218 27.19097 2138 ft 166 kts 345°
2026-05-06 20:43 38.18298 27.18777 2060 ft 153 kts 344°
2026-05-06 20:43 38.19311 27.18475 2019 ft 149 kts 345°
2026-05-06 20:43 38.20307 27.18174 1940 ft 145 kts 342°
2026-05-06 20:43 38.21285 27.17877 1759 ft 143 kts 343°
2026-05-06 20:44 38.22242 27.17587 1558 ft 142 kts 344°
2026-05-06 20:44 38.23201 27.17298 1348 ft 142 kts 343°
2026-05-06 20:44 38.24160 27.17012 1171 ft 140 kts 346°
2026-05-06 20:44 38.25112 27.16735 985 ft 139 kts 346°
2026-05-06 20:45 38.26044 27.16443 768 ft 139 kts 347°
2026-05-06 20:45 38.26981 27.16166 620 ft 139 kts 349°
2026-05-06 20:45 38.27917 27.15879 425 ft 137 kts 347°
2026-05-06 20:45 38.28747 27.15638 414 ft 109 kts 348°
2026-05-06 20:46 38.29379 27.15437 413 ft 80 kts 346°
2026-05-06 20:46 38.29810 27.15306 410 ft 42 kts 346°
2026-05-06 20:46 38.29982 27.15225 416 ft 17 kts 285°
2026-05-06 20:46 38.29959 27.15060 411 ft 13 kts 258°
2026-05-06 20:47 38.29947 27.14988 411 ft 7 kts 255°
2026-05-06 20:47 38.29913 27.14959 411 ft 6 kts 178°
2026-05-06 20:47 38.29860 27.14973 411 ft 9 kts 168°
2026-05-06 20:47 38.29806 27.14989 408 ft 7 kts 166°
2026-05-06 20:48 38.29750 27.15005 411 ft 10 kts 168°
2026-05-06 20:48 38.29702 27.15019 411 ft 7 kts 168°
2026-05-06 20:48 38.29673 27.14997 411 ft 2 kts 243°
2026-05-06 20:48 38.29670 27.14985 411 ft 1 kts 255°
2026-05-06 20:49 38.29668 27.14972 411 ft 4 kts 256°
2026-05-06 20:49 38.29665 27.14954 408 ft 1 kts 258°
2026-05-06 20:49 38.29664 27.14948 410 ft 0 kts 257°
2026-05-06 20:49 38.29663 27.14946 407 ft 0 kts 258°